GW5939 Weather Reports


time (UTC)temp
F
wind
direction
speed
knots
gust
knots
rain 1hr
in
rain 24hr
in
rain mn
in
humidity
%
barometer
mb
20260509212735 86 37 1.7 2.6 0.00 0.05 0.05 77 1012.3
20260509212233 86 27 0.0 2.6 0.00 0.05 0.05 77 1012.3
20260509211728 85 111 1.7 3.5 0.00 0.05 0.05 79 1012.3
20260509211225 85 66 0.0 0.9 0.00 0.05 0.05 79 1012.3
20260509210721 84 126 1.7 3.5 0.00 0.05 0.05 80 1012.3
20260509210219 84 126 1.7 3.5 0.00 0.05 0.05 80 1012.3
20260509205718 83 153 1.7 2.6 0.00 0.05 0.05 81 1012.3
20260509205213 83 153 0.9 2.6 0.00 0.05 0.05 81 1012.3
20260509204709 83 131 3.5 5.2 0.00 0.05 0.05 81 1011.9
20260509204205 83 147 3.5 6.1 0.00 0.05 0.05 81 1011.9
20260509203701 83 133 3.5 5.2 0.00 0.05 0.05 81 1011.9
20260509203159 83 131 0.9 2.6 0.00 0.05 0.05 81 1011.9
20260509202655 82 131 3.5 4.3 0.00 0.05 0.05 81 1011.9
20260509202149 82 131 3.5 4.3 0.00 0.05 0.05 81 1011.9
20260509195759 81 135 2.6 6.1 0.00 0.05 0.05 83 1011.2
20260509195254 81 135 2.6 6.1 0.00 0.05 0.05 83 1011.2
20260509194754 81 125 3.5 4.3 0.00 0.05 0.05 84 1011.2
20260509194250 81 95 2.6 5.2 0.00 0.05 0.05 84 1011.2
20260509193747 81 117 1.7 2.6 0.00 0.05 0.05 84 1011.2
20260509192036 81 94 2.6 8.7 0.00 0.05 0.05 84 1011.2
20260509191531 81 94 2.6 8.7 0.00 0.05 0.05 84 1011.2
20260509191027 81 102 3.5 11.3 0.00 0.05 0.05 84 1011.2
20260509190524 81 111 2.6 6.1 0.00 0.05 0.05 85 1011.2
20260509190022 81 47 1.7 6.1 0.00 0.05 0.05 85 1010.9
20260509185519 81 47 1.7 6.1 0.00 0.05 0.05 85 1010.9
20260509185015 80 93 1.7 5.2 0.00 0.05 0.05 86 1010.9
20260509184514 80 59 0.9 6.1 0.00 0.05 0.05 86 1010.9
20260509184010 80 11 0.9 5.2 0.00 0.05 0.05 87 1010.9
20260509183505 80 0 0.0 0.0 0.00 0.05 0.05 87 1010.9
20260509183001 80 0 0.0 3.5 0.00 0.05 0.05 87 1010.9
20260509182457 80 32 0.0 1.7 0.00 0.05 0.05 88 1010.9
20260509181955 80 32 0.9 1.7 0.00 0.05 0.05 88 1010.9
20260509181453 80 112 1.7 3.5 0.47 0.04 0.04 88 1010.9
20260509180950 80 112 0.0 1.7 0.00 0.04 0.04 88 1010.9
20260509180445 80 112 0.9 1.7 0.00 0.04 0.04 87 1011.2
20260509175942 80 112 0.9 1.7 0.00 0.04 0.04 87 1011.2
20260509175439 80 55 2.6 5.2 0.00 0.02 0.02 85 1010.9
20260509174935 81 76 2.6 7.8 0.47 0.01 0.01 85 1010.9
20260509174431 81 116 0.0 0.9 0.00 0.01 0.01 84 1010.9
20260509173927 81 67 0.0 1.7 0.00 0.01 0.01 84 1010.9
20260509173426 81 67 0.0 0.9 0.00 0.01 0.01 84 1010.9
20260509172923 81 128 1.7 5.2 0.00 0.01 0.01 84 1010.9
20260509172421 81 103 0.9 1.7 0.00 0.01 0.01 84 1010.9
20260509171916 81 150 1.7 5.2 0.00 0.01 0.01 84 1010.6
20260509171412 81 42 1.7 5.2 0.00 0.01 0.01 84 1010.6
20260509170909 81 164 0.9 1.7 0.00 0.01 0.01 84 1010.6
20260509170404 81 124 1.7 2.6 0.00 0.01 0.01 84 1010.6
20260509165900 81 124 1.7 2.6 0.00 0.01 0.01 84 1010.6
20260509165354 81 96 0.9 3.5 0.00 0.01 0.01 83 1010.6
20260509164850 81 103 1.7 3.5 0.00 0.01 0.01 83 1010.6
20260509164346 81 124 3.5 6.1 0.00 0.01 0.01 83 1010.6
20260509163843 81 123 1.7 4.3 0.00 0.01 0.01 83 1010.6
20260509163340 81 125 1.7 7.8 0.00 0.01 0.01 84 1010.6
20260509162839 81 125 1.7 7.8 0.00 0.01 0.01 84 1010.6
20260509162338 81 127 1.7 5.2 0.00 0.01 0.01 84 1010.6
20260509161834 81 125 2.6 7.0 0.00 0.01 0.01 84 1010.6
20260509161330 81 338 0.9 7.0 0.00 0.01 0.01 84 1010.6
20260509160826 81 88 1.7 6.1 0.00 0.01 0.01 85 1010.6
20260509160322 81 121 2.6 5.2 0.00 0.01 0.01 85 1010.6
20260509155817 80 104 0.9 6.1 0.00 0.01 0.01 85 1010.9
20260509155314 80 124 1.7 4.3 0.00 0.01 0.01 85 1010.9
20260509154810 80 129 1.7 5.2 0.00 0.01 0.01 85 1010.9
20260509154307 81 90 1.7 3.5 0.00 0.01 0.01 84 1010.9
20260509153804 81 116 2.6 4.3 0.00 0.00 0.00 84 1010.9
20260509153300 81 73 2.6 7.0 0.00 0.00 0.00 84 1010.9
20260509152757 81 82 3.5 7.8 0.00 0.00 0.00 83 1011.2
20260509152253 81 36 5.2 8.7 0.00 0.00 0.00 82 1011.2
20260509151751 82 50 3.5 7.8 0.00 0.00 0.00 82 1011.2
20260509151247 82 52 3.5 8.7 0.00 0.00 0.00 81 1011.2
20260509150745 82 80 1.7 4.3 0.00 0.00 0.00 80 1011.2
20260509150244 82 118 1.7 3.5 0.00 0.00 0.00 80 1011.2
20260509145740 82 108 3.5 7.8 0.00 0.00 0.00 80 1011.2
20260509145239 82 68 2.6 6.1 0.00 0.00 0.00 80 1011.2
20260509144737 82 38 1.7 5.2 0.00 0.00 0.00 80 1011.6
20260509144233 82 73 2.6 5.2 0.00 0.00 0.00 80 1011.6
20260509143731 82 70 3.5 12.2 0.00 0.00 0.00 81 1011.6
20260509143228 82 56 5.2 13.9 0.00 0.00 0.00 81 1011.6
20260509142723 82 54 5.2 10.4 0.00 0.00 0.00 80 1011.6
20260509142220 82 102 5.2 9.6 0.00 0.00 0.00 80 1011.6
20260509141716 82 126 5.2 13.9 0.00 0.00 0.00 81 1011.6
20260509141213 82 109 3.5 7.0 0.00 0.00 0.00 81 1011.6
20260509140709 82 82 3.5 6.1 0.00 0.00 0.00 81 1011.6
20260509140207 82 114 3.5 5.2 0.00 0.00 0.00 81 1011.6
20260509135704 82 85 4.3 11.3 0.00 0.00 0.00 81 1011.9
20260509135202 82 112 4.3 7.8 0.00 0.00 0.00 81 1011.9
20260509134658 82 101 4.3 9.6 0.00 0.00 0.00 81 1011.9
20260509134156 82 101 4.3 9.6 0.00 0.00 0.00 81 1011.9
20260509133653 82 85 5.2 12.2 0.00 0.00 0.00 82 1011.9
20260509133150 82 72 3.5 8.7 0.00 0.00 0.00 82 1011.9
20260509132649 82 76 1.7 6.1 0.00 0.00 0.00 83 1011.9
20260509132147 82 98 3.5 6.1 0.00 0.00 0.00 83 1011.9
20260509131545 82 137 2.6 5.2 0.00 0.00 0.00 82 1011.9
20260509131042 82 137 2.6 5.2 0.00 0.00 0.00 82 1011.9
20260509130537 82 75 1.7 5.2 0.00 0.00 0.00 83 1012.3
20260509130035 82 112 1.7 5.2 0.00 1.64 1.64 83 1012.3
20260509125531 82 100 3.5 9.6 0.00 1.64 1.64 83 1012.3
20260509125027 82 113 3.5 7.0 0.00 1.64 1.64 83 1012.3
20260509124524 82 81 2.6 6.1 0.00 1.64 1.64 83 1012.3
20260509124022 82 110 2.6 7.0 0.00 1.64 1.64 83 1012.3
20260509123520 82 88 1.7 8.7 0.00 1.64 1.64 83 1012.3
20260509123015 82 119 3.5 7.0 0.00 1.64 1.64 84 1012.3
20260509122512 82 109 3.5 8.7 0.00 1.64 1.64 84 1012.3
20260509122009 82 129 3.5 6.1 0.00 1.64 1.64 83 1012.3
20260509121505 82 111 4.3 7.0 0.00 1.64 1.64 83 1012.3
20260509121003 82 86 5.2 8.7 0.00 1.64 1.64 82 1012.3
20260509120501 82 100 2.6 6.1 0.00 1.64 1.64 82 1012.3
20260509115959 82 114 3.5 7.0 0.00 1.64 1.64 82 1012.3
20260509115456 82 47 2.6 6.1 0.00 1.64 1.64 83 1012.3
20260509114953 82 107 3.5 7.8 0.00 1.64 1.64 83 1012.3
20260509114452 82 91 0.9 3.5 0.00 1.64 1.64 83 1012.3
20260509113951 82 89 3.5 11.3 0.00 1.64 1.64 83 1012.3
20260509113448 82 54 1.7 5.2 0.00 1.64 1.64 82 1012.3
20260509112944 82 66 0.9 5.2 0.00 1.64 1.64 83 1012.3
20260509112442 82 65 3.5 6.1 0.00 1.64 1.64 83 1012.3
20260509111938 82 65 3.5 6.1 0.00 1.64 1.64 83 1012.3
20260509111436 82 115 3.5 7.8 0.00 1.64 1.64 83 1012.3
20260509110933 82 61 5.2 10.4 0.00 1.64 1.64 83 1011.9
20260509110429 82 62 4.3 9.6 0.00 1.64 1.64 83 1011.9
20260509105927 82 79 3.5 8.7 0.00 1.64 1.64 83 1011.9
20260509105426 82 48 2.6 5.2 0.00 1.64 1.64 83 1011.9
20260509104922 82 62 4.3 9.6 0.00 1.64 1.64 82 1011.9
20260509104419 82 64 6.1 12.2 0.00 1.64 1.64 82 1011.9
20260509103916 82 60 5.2 10.4 0.00 1.64 1.64 83 1011.9
20260509103413 82 53 5.2 9.6 0.00 1.64 1.64 83 1011.9
20260509102912 82 73 3.5 12.2 0.00 1.64 1.64 83 1011.9
20260509102409 82 55 3.5 7.8 0.00 1.64 1.64 82 1011.9
20260509101905 82 104 3.5 11.3 0.00 1.64 1.64 82 1011.9
20260509101401 82 71 5.2 9.6 0.00 1.64 1.64 82 1011.9
20260509100859 82 64 4.3 11.3 0.00 1.64 1.64 82 1011.9
20260509100356 82 90 5.2 11.3 0.00 1.64 1.64 82 1011.9
20260509095852 82 92 4.3 9.6 0.00 1.64 1.64 82 1011.9
20260509095350 82 86 5.2 10.4 0.00 1.64 1.64 83 1011.6
20260509094847 82 95 6.1 9.6 0.00 1.64 1.64 83 1011.9
20260509094343 82 73 5.2 10.4 0.00 1.64 1.64 83 1011.9
20260509093841 82 90 5.2 10.4 0.00 1.64 1.64 83 1011.9
20260509093338 82 74 5.2 9.6 0.00 1.64 1.64 83 1011.9
20260509092837 82 73 7.0 17.4 0.00 1.64 1.64 83 1011.9
20260509092334 82 107 5.2 10.4 0.00 1.64 1.64 83 1011.9
20260509091832 82 50 4.3 9.6 0.00 1.64 1.64 83 1011.9
20260509091328 82 94 4.3 10.4 0.00 1.64 1.64 83 1011.6
20260509090826 82 94 4.3 10.4 0.00 1.64 1.64 83 1011.6
20260509090323 82 97 5.2 9.6 0.00 1.64 1.64 83 1011.2
20260509085820 82 75 7.0 12.2 0.00 1.64 1.64 83 1011.2
20260509085318 82 44 5.2 9.6 0.00 1.64 1.64 83 1011.2
20260509084814 82 75 5.2 8.7 0.00 1.64 1.64 83 1011.2
20260509084311 82 68 5.2 14.8 0.00 1.64 1.64 83 1011.2
20260509083809 82 71 5.2 8.7 0.00 1.64 1.64 83 1011.2
20260509083305 82 118 4.3 9.6 0.00 1.64 1.64 84 1010.9
20260509082802 82 118 4.3 9.6 0.00 1.64 1.64 84 1010.9
20260509082258 82 80 2.6 8.7 0.00 1.64 1.64 84 1010.9
20260509081755 82 90 3.5 6.1 0.00 1.64 1.64 85 1010.9
20260509081253 82 29 1.7 7.0 0.00 1.64 1.64 84 1010.9
20260509080751 82 29 1.7 7.0 0.00 1.64 1.64 84 1010.9
20260509080248 82 95 5.2 8.7 0.00 1.64 1.64 84 1011.2
20260509075746 82 44 5.2 11.3 0.00 1.64 1.64 84 1011.2
20260509074618 82 124 1.7 5.2 0.00 1.64 1.64 85 1010.9
20260509074115 82 124 1.7 5.2 0.00 1.64 1.64 85 1010.9
20260509073612 82 72 1.7 6.1 0.00 1.64 1.64 85 1010.9
20260509073108 82 49 4.3 13.0 0.00 1.64 1.64 85 1010.6
20260509072605 82 49 4.3 13.0 0.00 1.64 1.64 85 1010.6
20260509072102 82 45 7.0 13.0 0.00 1.64 1.64 86 1010.6
20260509071558 82 35 7.0 16.5 0.00 1.64 1.64 86 1010.6
20260509071056 81 115 4.3 11.3 0.00 1.64 1.64 85 1010.6
20260509070553 81 115 4.3 11.3 0.00 1.64 1.64 85 1010.6
20260509070049 82 84 5.2 9.6 0.47 1.62 1.62 84 1010.6
20260509065544 82 57 4.3 7.8 0.00 1.62 1.62 85 1010.6
20260509063828 81 68 5.2 11.3 0.00 1.62 1.62 85 1010.6
20260509063324 81 68 5.2 11.3 0.00 1.62 1.62 85 1010.6
20260509062821 81 68 5.2 11.3 0.00 1.62 1.62 85 1010.6
20260509062318 81 33 6.1 11.3 0.00 1.62 1.62 86 1010.2
20260509061815 81 47 7.0 15.6 0.00 1.62 1.62 86 1010.2
20260509061314 82 61 4.3 7.0 0.00 1.61 1.61 86 1010.2
20260509060810 82 64 4.3 8.7 0.00 1.60 1.60 86 1010.2
20260509060307 82 36 2.6 5.2 0.00 1.60 1.60 86 1010.2
20260509055802 82 123 1.7 4.3 0.47 1.59 1.59 86 1010.2
20260509055258 82 28 4.3 8.7 0.00 1.59 1.59 86 1010.2
20260509054755 82 46 3.5 9.6 0.00 1.58 1.58 86 1009.9
20260509054252 82 73 3.5 8.7 0.00 1.58 1.58 86 1010.2
20260509053751 82 49 4.3 11.3 0.00 1.58 1.58 86 1010.2
20260509053247 82 29 4.3 11.3 0.00 1.57 1.57 85 1010.2
20260509052745 82 64 4.3 11.3 0.47 1.53 1.53 85 1010.2
20260509050156 82 100 3.5 7.0 0.00 1.53 1.53 84 1009.9
20260509045653 82 100 3.5 7.0 0.00 1.53 1.53 84 1009.9
20260509045150 82 100 3.5 7.0 0.00 1.53 1.53 84 1009.9
20260509044647 82 70 2.6 5.2 0.00 1.53 1.53 83 1009.9
20260509044144 82 150 0.9 6.1 0.00 1.53 1.53 83 1009.9
20260509043641 82 150 0.9 6.1 0.00 1.53 1.53 83 1009.9
20260509043136 82 132 0.9 3.5 0.00 1.53 1.53 84 1009.9
20260509042633 82 112 0.0 3.5 0.00 1.53 1.53 86 1009.9
20260509042129 82 112 0.0 3.5 0.00 1.53 1.53 86 1009.9
20260509041626 82 153 0.0 0.0 0.00 1.53 1.53 87 1009.9
20260509041123 82 153 0.0 0.0 0.00 1.53 1.53 87 1009.9
20260509040622 82 153 0.0 0.0 0.00 1.53 1.53 87 1009.9
20260509040119 81 153 0.0 1.7 0.00 1.53 1.53 87 1009.9
20260509035615 81 153 0.0 1.7 0.00 1.53 1.53 87 1009.9
20260509035112 81 92 0.0 1.7 0.00 1.52 1.52 87 1009.9
20260509034610 81 92 0.9 1.7 0.00 1.52 1.52 87 1009.9
20260509034106 80 109 2.6 5.2 0.00 1.52 1.52 88 1009.9
20260509033604 80 125 0.0 0.0 0.00 1.52 1.52 88 1009.9
20260509033100 80 97 1.7 6.1 0.00 1.52 1.52 89 1010.2
20260509032558 80 75 1.7 3.5 0.00 1.52 1.52 90 1010.2
20260509032055 80 110 0.0 0.9 0.00 1.52 1.52 91 1010.2
20260509031553 80 110 1.7 4.3 0.00 1.52 1.52 91 1010.2
20260509031049 80 143 0.0 2.6 0.94 1.50 1.50 91 1010.2
20260509030548 80 143 0.0 0.0 0.00 1.50 1.50 91 1010.2
20260509030044 80 143 0.9 1.7 0.47 1.47 1.47 91 1010.6
20260509025540 80 143 0.9 1.7 0.00 1.46 1.46 91 1010.6
20260509025036 80 143 0.0 1.7 0.47 1.45 1.45 91 1010.6
20260509024532 80 152 1.7 3.5 0.47 1.44 1.44 91 1010.6
20260509024028 79 61 0.0 3.5 0.00 1.43 1.43 92 1010.6
20260509023526 79 61 0.0 0.0 0.47 1.42 1.42 92 1010.6
20260509023023 79 61 0.0 0.0 0.00 1.42 1.42 92 1010.9
20260509022519 79 61 0.0 0.0 0.47 1.41 1.41 92 1010.9
20260509022017 79 61 0.0 0.0 0.47 1.40 1.40 92 1010.9
20260509021514 79 61 0.0 0.0 0.00 1.40 1.40 92 1010.9
20260509021011 79 61 0.0 0.0 0.00 1.40 1.40 92 1010.9
20260509020509 79 61 0.0 0.0 0.00 1.39 1.39 92 1010.9
20260509020006 79 61 0.0 0.0 0.00 1.39 1.39 91 1010.9
20260509015505 79 61 0.0 1.7 0.47 1.38 1.38 91 1011.2
20260509015001 79 61 0.9 1.7 0.00 1.36 1.36 91 1011.2
20260509014458 79 247 0.0 0.0 0.94 1.32 1.32 91 1011.6
20260509013954 79 247 0.0 0.0 3.31 1.24 1.24 91 1011.2
20260509013451 79 247 0.0 0.0 0.47 1.18 1.18 91 1011.6
20260509012947 79 247 0.0 0.0 0.47 1.10 1.10 91 1011.6
20260509012415 80 301 0.0 3.5 2.83 1.05 1.05 90 1011.9
20260509011913 80 301 0.0 3.5 2.83 1.05 1.05 90 1011.9
20260509011410 80 356 0.0 0.0 1.42 0.99 0.99 90 1011.9
20260509010908 80 219 0.0 0.0 1.89 0.82 0.82 90 1011.9
20260509010405 80 219 0.0 2.6 1.42 0.80 0.80 89 1011.9
20260509005902 81 171 0.9 3.5 4.72 0.57 0.57 88 1012.3
20260509005400 82 143 0.0 0.0 5.20 0.39 0.39 86 1012.3
20260509004900 83 143 0.9 1.7 0.00 0.28 0.28 86 1011.9
20260509004356 83 143 0.0 1.7 0.00 0.28 0.28 85 1011.9
20260509003854 84 143 0.0 0.0 0.00 0.28 0.28 84 1011.9
20260509003351 84 143 0.0 0.0 0.00 0.28 0.28 82 1011.9
20260509002848 84 143 0.0 0.0 0.47 0.27 0.27 81 1011.9
20260509002346 84 143 0.0 1.7 0.47 0.26 0.26 79 1011.9
20260509001844 85 125 3.5 5.2 0.00 0.26 0.26 77 1011.9
20260509001339 85 142 1.7 4.3 0.00 0.26 0.26 78 1011.9
20260509000837 85 24 1.7 4.3 0.00 0.26 0.26 79 1011.9
20260509000335 85 99 1.7 5.2 0.00 0.26 0.26 79 1011.9
20260508235831 85 69 0.0 2.6 0.00 0.25 0.25 79 1011.9
20260508235328 85 69 0.0 0.0 0.00 0.25 0.25 80 1011.9
20260508234825 85 69 0.0 0.0 0.00 0.25 0.25 79 1011.9
20260508234321 86 106 0.9 2.6 0.00 0.25 0.25 77 1012.3
20260508233820 86 103 2.6 5.2 0.00 0.25 0.25 76 1012.3
20260508233319 87 58 1.7 4.3 0.00 0.25 0.25 76 1012.3
20260508232815 86 131 1.7 3.5 0.00 0.25 0.25 75 1012.6
20260508232311 86 125 1.7 4.3 0.00 0.25 0.25 76 1012.6
20260508231810 86 107 1.7 5.2 0.00 0.25 0.25 77 1012.6
20260508231306 86 76 3.5 7.8 0.00 0.25 0.25 77 1012.6
20260508230803 86 114 2.6 6.1 0.00 0.25 0.25 78 1012.6
20260508230259 84 85 0.9 3.5 0.00 0.25 0.25 81 1012.6
20260508225757 83 65 1.7 5.2 0.00 0.25 0.25 82 1012.6
20260508225253 84 115 3.5 7.8 0.00 0.25 0.25 81 1012.6
20260508224751 84 105 4.3 9.6 0.00 0.25 0.25 80 1012.6
20260508224248 83 93 5.2 9.6 0.00 0.25 0.25 82 1012.3
20260508223746 83 95 3.5 8.7 0.00 0.25 0.25 83 1012.3
20260508223243 83 84 3.5 6.1 0.94 0.23 0.23 82 1012.3
20260508222741 84 54 3.5 6.1 0.00 0.23 0.23 81 1012.3
20260508222238 84 33 4.3 7.8 0.00 0.23 0.23 81 1012.3
20260508221734 84 63 2.6 3.5 0.00 0.23 0.23 81 1012.3
20260508221230 85 91 2.6 4.3 0.00 0.23 0.23 81 1012.6
20260508220726 84 104 3.5 7.0 0.00 0.23 0.23 82 1012.6
20260508220223 84 109 2.6 7.0 0.00 0.23 0.23 82 1012.6
20260508215719 84 134 0.9 4.3 0.00 0.23 0.23 81 1012.6
20260508215216 84 77 3.5 8.7 0.47 0.21 0.21 79 1012.6
20260508214713 85 110 2.6 5.2 0.00 0.21 0.21 79 1012.6
20260508214211 85 45 3.5 9.6 0.00 0.21 0.21 79 1012.6
20260508213707 84 48 0.0 2.6 0.00 0.21 0.21 80 1012.3
20260508213203 84 123 0.9 1.7 0.00 0.21 0.21 80 1012.3